FENGYUN 1C DEB

Satellite information

Favourite Embed

Satellite Type and Status

DEBRISIN ORBIT

Key statistics

Satellite FENGYUN 1C DEB at a glance.

Uptime

9556

Days in orbit

Revolutions

≈ 14.8

Per day

Orbit

SSO

Sun Synchronous Orbit

Inclination

99.0

Latest

Satellite identification and parameters

Extended collection of information and parameters for FENGYUN 1C DEB.

Object identification

Identified? True

Debris? True

Object name: FENGYUN 1C DEB

International designator: 1999-025DA

Object number (NORAD): 29808

Object ID (CCSDS): 29808

Country: PEOPLES REPUBLIC OF CHINA (PRC)

Current information (Y/N): Y

RCS size: SMALL

Orbital parameters

Period: 97.158 minutes

Inclination: 99.0372 deg

SMA: 7000.784 km

Apoapsis: 629.52 km

Periapsis: 615.778 km

RAAN: 81.8505 deg

Eccentricy: 0.0009815

Argument of periapsis: 277.858 deg

Mean anomaly: 241.0146 deg

Mean motion: 14.82117931 rev/day

Mean motion (dot): 0.00032516 rev/day2

B* drag term: 0.004073 1/REarth

Two-line elements (TLE)

Creation date: July 6, 2025, 6:05 p.m.

Reference frame: TEME

Reference center: EARTH

Epoch: July 6, 2025, 5:22 a.m. UTC

TLE line 0: 0 FENGYUN 1C DEB

TLE line 1: 1 29808U 99025DA 25187.22375884 .00032516 00000-0 40730-2 0 9997

TLE line 2: 2 29808 99.0372 81.8505 0009815 277.8580 241.0146 14.82117931958430

Live tracking on map

Real-time ground track for satellite FENGYUN 1C DEB.

In-orbit conjunctions

A list of the most updated potential collisions computed for object FENGYUN 1C DEB.

Target Orbit TCA Probability of collision Miss distance Type
CZ-6A DEB SSO 2024-11-15 11:09:51 0.0001774546 183.0 (m) DEBRIS
CZ-6A DEB SSO 2024-09-26 02:02:23 0.0001982832 340.0 (m) DEBRIS

Associated space launch

Chinese polar orbiting meteorological satellite

FENGYUN 1C DEB was lifted into orbit during the mission ‘Long March 4B | Feng Yun 1C’, on board a Long March 4B space rocket.

The launch took place on May 10, 1999, 1:33 a.m. from Launch Complex 7.

For more information about the launch, click the button.

Launch to space Long March 4B | Feng Yun 1C
Long March 4B | Feng Yun 1C

Agency: N/A

Status: Launch Successful

Launch date: May 10, 1999, 1:33 a.m. UTC

Rocket: Long March 4B

Launch pad: Launch Complex 7

Location: Taiyuan Satellite Launch Center, People's Republic of China

...

Latest news about this satellite

There are no fresh news available about this satellite. Check back as we update our databases every day.


Newsletter sign-up

Weekly statistics, charts and insights to help you stay on top of the space industry.